Flag for U.S.A. Weather past 2 weeks in Worcester, Massachusetts, U.S.A.

Now
61 °F

Clear.


Feels Like: 61 °F
Forecast: 61 / 82 °F
Wind: 10 mph from Southwest

Location: Worcester Regional Airport

Current Time: Aug 30, 2015 at 5:57:23 AM

Latest Report: Aug 30, 2015 at 4:54 AM


Visibility: 10 mi

Pressure: 30.08 "Hg

Humidity: 90%

Dew point: 58 °F

Location of WorcesterLocation

Historic Weather in Worcester — Graph

°F

Worcester temperature yesterday

Maximum temperature yesterday: 75 °F (at 3:54 PM)
Minimum temperature yesterday: 58 °F (at 4:54 AM)
Average temperature yesterday: 67 °F

Past Weeks' High & Low Weather Summary

 TemperatureHumidityPressure
High86 °F (Aug 17, 3:54 PM)100% (Aug 24, 6:04 AM)30.22 "Hg (Aug 24, 6:04 AM)
Low57 °F (Aug 28, 5:54 AM)45% (Aug 28, 4:54 PM)29.85 "Hg (Aug 25, 5:54 PM)
Average71 °F76%30.05 "Hg
* Reported Aug 15 3:54 AM — Aug 30 3:54 AM, Worcester, Weather by CustomWeather, © 2015

Note: Actual official high and low records may vary slightly from our data, if they occured in-between our weather recording intervals... More about our weather records

Advertising

Worcester weather history for previous 24 hours

 ConditionsComfort  
Time TempWeatherWind HumidityBarometerVisibility
3:54 AM
Sun, Aug 30
63 °FClear.9 mph84%30.08 "Hg10 mi
2:54 AM63 °FClear.9 mph84%30.09 "Hg10 mi
1:54 AM64 °FClear.8 mph81%30.10 "Hg10 mi
12:54 AM64 °FClear.10 mph78%30.11 "Hg10 mi
11:54 PM
Sat, Aug 29
62 °FClear.7 mph80%30.12 "Hg10 mi
10:54 PM65 °FClear.6 mph70%30.13 "Hg10 mi
9:54 PM66 °FClear.6 mph68%30.13 "Hg10 mi
8:54 PM67 °FClear.6 mph66%30.13 "Hg10 mi
7:54 PM68 °FSunny.7 mph65%30.12 "Hg10 mi
6:54 PM71 °FSunny.6 mph57%30.12 "Hg10 mi
5:54 PM74 °FSunny.7 mph52%30.12 "Hg10 mi
4:54 PM74 °FSunny.6 mph52%30.13 "Hg10 mi
3:54 PM75 °FSunny.7 mph47%30.14 "Hg10 mi
2:54 PM74 °FSunny.7 mph48%30.16 "Hg10 mi
1:54 PM74 °FSunny.10 mph46%30.18 "Hg10 mi
12:54 PM72 °FSunny.6 mph48%30.19 "Hg10 mi
11:54 AM72 °FSunny.10 mph49%30.20 "Hg10 mi
10:54 AM70 °FSunny.9 mph57%30.22 "Hg10 mi
9:54 AM69 °FSunny.10 mph57%30.22 "Hg10 mi
8:54 AM66 °FSunny.9 mph63%30.22 "Hg10 mi
7:54 AM62 °FSunny.7 mph73%30.21 "Hg10 mi
6:54 AM59 °FClear.7 mph78%30.20 "Hg10 mi
5:54 AM59 °FClear.7 mph75%30.19 "Hg10 mi
Weather by CustomWeather, © 2015

See weather overviewHow to use our weather pages